When you browse on this site, cookies collect data to enhance your experience and personalize the content and advertising you see.
Visit our Privacy Policy to learn more. By continuing to use the site, you agree to this use of cookies and data.
  • In Austria
  • List of Countries
  • For 7 days
  • Water Temperature
  • Weather Map
  • News
  • Weather Widgets
  • user-avatar
    Login

    Hourly Weather San Antonio del Tequendama

    Today, 17 September, Tuesday

    Time Temperature Precipitation Wind Pressure Humidity
    00:00 +20°C° 0.1 mm 1 mps 643 mmHg 81%
    01:00 +20°C° 0.1 mm 1 mps 642 mmHg 80%
    02:00 +20°C° 0.1 mm 1 mps 642 mmHg 81%
    03:00 +19°C° 0.1 mm 1 mps 642 mmHg 81%
    04:00 +19°C° 0.1 mm 1 mps 642 mmHg 81%
    05:00 +20°C° 0.1 mm 1 mps 643 mmHg 79%
    06:00 +21°C° 0.1 mm 1 mps 643 mmHg 78%
    07:00 +21°C° 0.1 mm 1 mps 644 mmHg 76%
    08:00 +23°C° 0.1 mm 1 mps 645 mmHg 72%
    09:00 +25°C° 0.1 mm 1 mps 645 mmHg 69%
    10:00 +26°C° 0.1 mm 2 mps 645 mmHg 66%
    11:00 +26°C° 0.4 mm 2 mps 644 mmHg 66%
    12:00 +27°C° 0.4 mm 2 mps 644 mmHg 66%
    13:00 +27°C° 0.4 mm 2 mps 643 mmHg 67%
    14:00 +27°C° 0.8 mm 2 mps 642 mmHg 68%
    15:00 +26°C° 0.8 mm 1 mps 642 mmHg 69%
    16:00 +26°C° 0.8 mm 1 mps 642 mmHg 70%
    17:00 +25°C° 1.2 mm 1 mps 642 mmHg 74%
    18:00 +24°C° 1.2 mm 1 mps 642 mmHg 78%
    19:00 +22°C° 1.2 mm 1 mps 642 mmHg 83%
    20:00 +22°C° 0.7 mm 1 mps 642 mmHg 83%
    21:00 +21°C° 0.7 mm 1 mps 643 mmHg 83%
    22:00 +21°C° 0.7 mm 1 mps 643 mmHg 83%
    23:00 +21°C° 0.9 mm 1 mps 643 mmHg 84%

    Tomorrow, 18 September, Wednesday

    Time Temperature Precipitation Wind Pressure Humidity
    00:00 +21°C° 0.9 mm 1 mps 643 mmHg 86%
    01:00 +20°C° 0.9 mm 1 mps 642 mmHg 87%
    02:00 +20°C° 2.2 mm 1 mps 642 mmHg 89%
    03:00 +18°C° 2.2 mm 0 mps 642 mmHg 91%
    04:00 +18°C° 2.2 mm 0 mps 642 mmHg 93%
    05:00 +18°C° 0.8 mm 0 mps 642 mmHg 93%
    06:00 +18°C° 0.8 mm 0 mps 643 mmHg 93%
    07:00 +18°C° 0.8 mm 0 mps 643 mmHg 93%
    08:00 +19°C° 0.3 mm 0 mps 643 mmHg 90%
    09:00 +21°C° 0.3 mm 1 mps 644 mmHg 88%
    10:00 +22°C° 0.3 mm 1 mps 644 mmHg 85%
    11:00 +23°C° 0.2 mm 1 mps 643 mmHg 81%
    12:00 +24°C° 0.2 mm 2 mps 643 mmHg 78%
    13:00 +25°C° 0.2 mm 2 mps 642 mmHg 74%
    14:00 +25°C° 0.4 mm 2 mps 642 mmHg 73%
    15:00 +25°C° 0.4 mm 2 mps 641 mmHg 73%
    16:00 +25°C° 0.4 mm 2 mps 641 mmHg 73%
    17:00 +24°C° 0.5 mm 1 mps 641 mmHg 78%
    18:00 +23°C° 0.5 mm 1 mps 641 mmHg 83%
    19:00 +20°C° 0.5 mm 0 mps 641 mmHg 88%
    20:00 +22°C° 0.7 mm 1 mps 641 mmHg 88%
    21:00 +22°C° 0.7 mm 1 mps 642 mmHg 87%
    22:00 +21°C° 0.7 mm 1 mps 642 mmHg 86%
    23:00 +21°C° 0.2 mm 1 mps 642 mmHg 86%

    Day after tomorrow, 19 September, Thursday

    Time Temperature Precipitation Wind Pressure Humidity
    00:00 +21°C° 0.2 mm 1 mps 642 mmHg 86%
    01:00 +19°C° 0.2 mm 0 mps 642 mmHg 86%
    02:00 +19°C° 0 mm 0 mps 642 mmHg 86%
    03:00 +19°C° 0 mm 0 mps 641 mmHg 85%
    04:00 +18°C° 0 mm 0 mps 641 mmHg 85%
    05:00 +19°C° 0.2 mm 0 mps 642 mmHg 84%
    06:00 +19°C° 0.2 mm 0 mps 642 mmHg 84%
    07:00 +19°C° 0.2 mm 0 mps 643 mmHg 84%
    08:00 +22°C° 0.2 mm 1 mps 643 mmHg 80%
    09:00 +24°C° 0.2 mm 1 mps 643 mmHg 76%
    10:00 +25°C° 0.2 mm 1 mps 644 mmHg 73%
    11:00 +25°C° 0.8 mm 1 mps 643 mmHg 75%
    12:00 +25°C° 0.8 mm 1 mps 642 mmHg 77%
    13:00 +26°C° 0.8 mm 2 mps 642 mmHg 79%
    14:00 +25°C° 1.1 mm 1 mps 641 mmHg 79%
    15:00 +25°C° 1.1 mm 1 mps 641 mmHg 80%
    16:00 +25°C° 1.1 mm 1 mps 641 mmHg 81%
    17:00 +24°C° 1.4 mm 1 mps 641 mmHg 85%
    18:00 +23°C° 1.4 mm 1 mps 641 mmHg 88%
    19:00 +22°C° 1.4 mm 1 mps 641 mmHg 92%
    20:00 +21°C° 0.5 mm 1 mps 641 mmHg 91%
    21:00 +19°C° 0.5 mm 0 mps 642 mmHg 91%
    22:00 +18°C° 0.5 mm 0 mps 642 mmHg 90%
    23:00 +18°C° 0.4 mm 0 mps 642 mmHg 90%

    20 September, Friday

    Time Temperature Precipitation Wind Pressure Humidity
    00:00 +18°C° 0.4 mm 0 mps 642 mmHg 90%
    01:00 +18°C° 0.4 mm 0 mps 642 mmHg 90%
    02:00 +18°C° 1 mm 0 mps 642 mmHg 91%
    03:00 +18°C° 1 mm 0 mps 642 mmHg 92%
    04:00 +18°C° 1 mm 0 mps 642 mmHg 93%
    05:00 +18°C° 2.2 mm 0 mps 643 mmHg 94%
    06:00 +18°C° 2.2 mm 0 mps 643 mmHg 95%
    07:00 +18°C° 2.2 mm 0 mps 644 mmHg 95%
    08:00 +18°C° 1.2 mm 0 mps 644 mmHg 94%
    09:00 +19°C° 1.2 mm 0 mps 645 mmHg 94%
    10:00 +19°C° 1.2 mm 0 mps 645 mmHg 93%
    11:00 +21°C° 1 mm 1 mps 644 mmHg 93%
    12:00 +21°C° 1 mm 1 mps 644 mmHg 93%
    13:00 +21°C° 1 mm 1 mps 643 mmHg 93%
    14:00 +21°C° 0.4 mm 1 mps 643 mmHg 91%
    15:00 +22°C° 0.4 mm 1 mps 643 mmHg 90%
    16:00 +22°C° 0.4 mm 1 mps 642 mmHg 88%
    17:00 +21°C° 0.1 mm 1 mps 642 mmHg 89%
    18:00 +20°C° 0.1 mm 1 mps 642 mmHg 89%
    19:00 +20°C° 0.1 mm 1 mps 642 mmHg 90%
    20:00 +19°C° 0 mm 1 mps 643 mmHg 87%
    21:00 +19°C° 0 mm 1 mps 643 mmHg 85%
    22:00 +19°C° 0 mm 1 mps 643 mmHg 83%
    23:00 +19°C° 0 mm 1 mps 643 mmHg 83%

    21 September, Saturday

    Time Temperature Precipitation Wind Pressure Humidity
    00:00 +19°C° 0 mm 1 mps 643 mmHg 83%
    01:00 +19°C° 0 mm 1 mps 643 mmHg 83%
    02:00 +19°C° 0 mm 1 mps 643 mmHg 83%
    03:00 +18°C° 0 mm 1 mps 643 mmHg 83%
    04:00 +18°C° 0 mm 1 mps 643 mmHg 83%
    05:00 +19°C° 0 mm 1 mps 643 mmHg 81%
    06:00 +20°C° 0 mm 1 mps 644 mmHg 80%
    07:00 +21°C° 0 mm 1 mps 645 mmHg 78%
    08:00 +22°C° 0 mm 1 mps 645 mmHg 73%
    09:00 +24°C° 0 mm 1 mps 645 mmHg 68%
    10:00 +26°C° 0 mm 1 mps 646 mmHg 63%
    11:00 +26°C° 0.6 mm 1 mps 645 mmHg 63%
    12:00 +26°C° 0.6 mm 1 mps 645 mmHg 63%
    13:00 +27°C° 0.6 mm 1 mps 644 mmHg 63%
    14:00 +27°C° 0.6 mm 1 mps 643 mmHg 64%
    15:00 +26°C° 0.6 mm 1 mps 643 mmHg 65%
    16:00 +26°C° 0.6 mm 1 mps 642 mmHg 66%
    17:00 +24°C° 0.4 mm 1 mps 642 mmHg 71%
    18:00 +23°C° 0.4 mm 1 mps 642 mmHg 75%
    19:00 +21°C° 0.4 mm 1 mps 642 mmHg 80%
    20:00 +21°C° 0.1 mm 1 mps 643 mmHg 79%
    21:00 +20°C° 0.1 mm 1 mps 643 mmHg 78%
    22:00 +20°C° 0.1 mm 1 mps 643 mmHg 77%
    23:00 +20°C° 0.2 mm 1 mps 643 mmHg 78%

    22 September, Sunday

    Time Temperature Precipitation Wind Pressure Humidity
    00:00 +20°C° 0.2 mm 1 mps 643 mmHg 79%
    01:00 +19°C° 0.2 mm 1 mps 642 mmHg 80%
    02:00 +19°C° 0.1 mm 1 mps 642 mmHg 80%
    03:00 +19°C° 0.1 mm 1 mps 642 mmHg 79%
    04:00 +19°C° 0.1 mm 1 mps 642 mmHg 79%
    05:00 +20°C° 0 mm 1 mps 643 mmHg 77%
    06:00 +20°C° 0 mm 1 mps 643 mmHg 76%
    07:00 +21°C° 0 mm 1 mps 644 mmHg 74%
    08:00 +23°C° 0.1 mm 1 mps 645 mmHg 71%
    09:00 +24°C° 0.1 mm 1 mps 645 mmHg 68%
    10:00 +26°C° 0.1 mm 1 mps 645 mmHg 64%
    11:00 +26°C° 0.7 mm 2 mps 645 mmHg 66%
    12:00 +26°C° 0.7 mm 2 mps 644 mmHg 69%
    13:00 +26°C° 0.7 mm 2 mps 643 mmHg 71%
    14:00 +26°C° 1.2 mm 1 mps 643 mmHg 72%
    15:00 +25°C° 1.2 mm 1 mps 642 mmHg 74%
    16:00 +25°C° 1.2 mm 1 mps 642 mmHg 76%
    17:00 +24°C° 0.8 mm 1 mps 642 mmHg 78%
    18:00 +22°C° 0.8 mm 1 mps 642 mmHg 81%
    19:00 +20°C° 0.8 mm 2 mps 642 mmHg 83%
    20:00 +21°C° 1.5 mm 1 mps 643 mmHg 85%
    21:00 +21°C° 1.5 mm 1 mps 643 mmHg 86%
    22:00 +20°C° 1.5 mm 1 mps 643 mmHg 87%
    23:00 +20°C° 0 mm 1 mps 643 mmHg 87%
    Show more